Weather in Kstinino

Russia / Kirov Oblast     58°26′43″N   49°46′47″E
temp.,
°C
wind,
m/s
gust,
m/s
humid.,
%
clouds,
%
prec.,
mm/h
press.,
hPa
HPBL,
m
18 may, tue
tue1800:00+14ene248592 0.0 101870
03:00+12ene228817 0.0 102023
06:00+15ne347067 0.0 1020249
09:00+20ne235158 0.0 1020840
12:00+23ne2240100 0.0 10201316
15:00+24ene33387 0.0 10201479
18:00+22e24515 0.0 1020172
21:00+16ese39735 0.0 1020163
19 may, wed
wed1900:00+14ese397959 0.0 1020183
03:00+12ese388444 0.0 1021175
06:00+16se486764 0.0 1021314
09:00+21se465173 0.0 1021924
12:00+24se563812 0.0 10201382
15:00+25se45365 0.0 10201554
18:00+23se36466 0.0 1019317
21:00+16se36705 0.0 1020104
20 may, thu
thu2000:00+14se38713 0.0 1020145
03:00+13se39750 0.0 1020174
06:00+17se49602 0.0 1019277
09:00+23sse4645100 0.0 1019760
12:00+25sse56356 0.0 10181802
15:00+26sse46331 0.0 10162029
18:00+24se37435 0.0 1015421
21:00+17sse37702 0.0 1016135
21 may, fri
fri2100:00+14se310685 0.0 1015230
03:00+13se310730 0.0 1014203
06:00+17se4125987 0.0 1014444
09:00+22se584277 0.0 10121038
12:00+20s6115571 0.0 10111555
15:00+20s71063100 0.3 10111454
18:00+19ssw59675 0.6 10111223
21:00+15ssw4128490 1.3 1012572
22 may, sat
sat2200:00+13sw5128810 0.0 1013586
03:00+12sw41093100 0.0 1015468
06:00+13wsw4683100 0.0 1016617
09:00+13wsw3580100 0.0 1018692
12:00+15wsw4567100 0.0 10191023
15:00+16sw3463100 0.1 1019983
18:00+15sw2476100 0.3 1018395
21:00+12sw2594100 0.4 1019205